Time,TemperatureF,DewpointF,PressureIn,WindDirection,WindDirectionDegrees,WindSpeedMPH,WindSpeedGustMPH,Humidity,HourlyPrecipIn,Conditions,Clouds,dailyrainin,SolarRadiationWatts/m^2,SoftwareType,DateUTC
2013-01-15 00:02:00,57.0,56.0,-100.00,WNW,301,1.0,4.0,96,0.00,,,0.00,0.000000,,2013-01-15 10:02:00,
2013-01-15 00:11:00,57.0,56.0,-100.00,WNW,301,1.0,4.0,96,0.00,,,0.00,0.000000,,2013-01-15 10:11:00,
2013-01-15 00:22:00,57.0,56.0,-100.00,West,265,1.0,3.0,97,0.00,,,0.00,0.000000,,2013-01-15 10:22:00,
2013-01-15 00:42:00,57.0,56.0,-100.00,West,265,1.0,3.0,97,0.00,,,0.00,0.000000,,2013-01-15 10:42:00,
2013-01-15 00:52:00,57.0,56.0,-100.00,West,265,1.0,3.0,97,0.00,,,0.00,0.000000,,2013-01-15 10:52:00,
2013-01-15 01:02:00,57.0,56.0,-100.00,West,265,1.0,3.0,97,0.00,,,0.00,0.000000,,2013-01-15 11:02:00,
2013-01-15 01:12:00,57.0,56.0,-100.00,West,265,1.0,3.0,97,0.00,,,0.00,0.000000,,2013-01-15 11:12:00,
2013-01-15 01:22:00,57.0,56.0,-100.00,SSW,207,0.0,3.0,96,0.00,,,0.00,0.000000,,2013-01-15 11:22:00,
2013-01-15 01:43:00,57.0,56.0,-100.00,SSW,207,0.0,3.0,96,0.00,,,0.00,0.000000,,2013-01-15 11:43:00,
2013-01-15 01:53:00,57.0,56.0,-100.00,SSW,207,0.0,3.0,96,0.00,,,0.00,0.000000,,2013-01-15 11:53:00,
2013-01-15 02:02:00,57.0,56.0,-100.00,SSW,207,0.0,3.0,96,0.00,,,0.00,0.000000,,2013-01-15 12:02:00,
2013-01-15 02:12:00,57.0,56.0,-100.00,SSW,207,0.0,3.0,96,0.00,,,0.00,0.000000,,2013-01-15 12:12:00,
2013-01-15 02:22:00,56.0,55.0,-100.00,WSW,239,0.0,3.0,97,0.00,,,0.00,0.000000,,2013-01-15 12:22:00,
2013-01-15 02:43:00,56.0,55.0,-100.00,WSW,239,0.0,3.0,97,0.00,,,0.00,0.000000,,2013-01-15 12:43:00,
2013-01-15 02:53:00,56.0,55.0,-100.00,WSW,239,0.0,3.0,97,0.00,,,0.00,0.000000,,2013-01-15 12:53:00,
2013-01-15 03:02:00,56.0,55.0,-100.00,WSW,239,0.0,3.0,97,0.00,,,0.00,0.000000,,2013-01-15 13:02:00,
2013-01-15 03:12:00,56.0,55.0,-100.00,WSW,239,0.0,3.0,97,0.00,,,0.00,0.000000,,2013-01-15 13:12:00,
2013-01-15 03:22:00,54.0,53.0,-100.00,SSE,148,0.0,3.0,96,0.00,,,0.00,0.000000,,2013-01-15 13:22:00,
2013-01-15 03:43:00,54.0,53.0,-100.00,SSE,148,0.0,3.0,96,0.00,,,0.00,0.000000,,2013-01-15 13:43:00,
2013-01-15 03:53:00,54.0,53.0,-100.00,SSE,148,0.0,3.0,96,0.00,,,0.00,0.000000,,2013-01-15 13:53:00,
2013-01-15 04:02:00,54.0,53.0,-100.00,SSE,148,0.0,3.0,96,0.00,,,0.00,0.000000,,2013-01-15 14:02:00,
2013-01-15 04:12:00,54.0,53.0,-100.00,SSE,148,0.0,3.0,96,0.00,,,0.00,0.000000,,2013-01-15 14:12:00,
2013-01-15 04:22:00,52.0,51.0,-100.00,SSW,203,0.0,4.0,96,0.00,,,0.00,0.000000,,2013-01-15 14:22:00,
2013-01-15 04:43:00,52.0,51.0,-100.00,SSW,203,0.0,4.0,96,0.00,,,0.00,0.000000,,2013-01-15 14:43:00,
2013-01-15 04:53:00,52.0,51.0,-100.00,SSW,203,0.0,4.0,96,0.00,,,0.00,0.000000,,2013-01-15 14:53:00,
2013-01-15 05:03:00,52.0,51.0,-100.00,SSW,203,0.0,4.0,96,0.00,,,0.00,0.000000,,2013-01-15 15:03:00,
2013-01-15 05:12:00,52.0,51.0,-100.00,SSW,203,0.0,4.0,96,0.00,,,0.00,0.000000,,2013-01-15 15:12:00,
2013-01-15 05:22:00,52.0,51.0,-100.00,SE,128,0.0,2.0,97,0.00,,,0.00,0.000000,,2013-01-15 15:22:00,
2013-01-15 05:43:00,52.0,51.0,-100.00,SE,128,0.0,2.0,97,0.00,,,0.00,0.000000,,2013-01-15 15:43:00,
2013-01-15 05:53:00,52.0,51.0,-100.00,SE,128,0.0,2.0,97,0.00,,,0.00,0.000000,,2013-01-15 15:53:00,
2013-01-15 06:02:00,52.0,51.0,-100.00,SE,128,0.0,2.0,97,0.00,,,0.00,0.000000,,2013-01-15 16:02:00,
2013-01-15 06:12:00,52.0,51.0,-100.00,SE,128,0.0,2.0,97,0.00,,,0.00,0.000000,,2013-01-15 16:12:00,
2013-01-15 06:22:00,53.0,52.0,-100.00,SSE,156,0.0,2.0,97,0.00,,,0.00,0.000000,,2013-01-15 16:22:00,
2013-01-15 06:43:00,53.0,52.0,-100.00,SSE,156,0.0,2.0,97,0.00,,,0.00,0.000000,,2013-01-15 16:43:00,
2013-01-15 06:53:00,53.0,52.0,-100.00,SSE,156,0.0,2.0,97,0.00,,,0.00,0.000000,,2013-01-15 16:53:00,
2013-01-15 07:03:00,53.0,52.0,-100.00,SSE,156,0.0,2.0,97,0.00,,,0.00,0.000000,,2013-01-15 17:03:00,
2013-01-15 07:12:00,53.0,52.0,-100.00,SSE,156,0.0,2.0,97,0.00,,,0.00,0.000000,,2013-01-15 17:12:00,
2013-01-15 07:22:00,55.0,54.0,-100.00,SSE,152,0.0,3.0,97,0.00,,,0.00,0.000000,,2013-01-15 17:22:00,
2013-01-15 07:43:00,55.0,54.0,-100.00,SSE,152,0.0,3.0,97,0.00,,,0.00,0.000000,,2013-01-15 17:43:00,
2013-01-15 07:53:00,55.0,54.0,-100.00,SSE,152,0.0,3.0,97,0.00,,,0.00,0.000000,,2013-01-15 17:53:00,
2013-01-15 08:02:00,55.0,54.0,-100.00,SSE,152,0.0,3.0,97,0.00,,,0.00,0.000000,,2013-01-15 18:02:00,
2013-01-15 08:12:00,55.0,54.0,-100.00,SSE,152,0.0,3.0,97,0.00,,,0.00,0.000000,,2013-01-15 18:12:00,
2013-01-15 08:22:00,55.0,54.0,-100.00,East,82,0.0,3.0,96,0.00,,,0.00,20.000000,,2013-01-15 18:22:00,
2013-01-15 08:43:00,55.0,54.0,-100.00,East,82,0.0,3.0,96,0.00,,,0.00,20.000000,,2013-01-15 18:43:00,
2013-01-15 08:53:00,55.0,54.0,-100.00,East,82,0.0,3.0,96,0.00,,,0.00,20.000000,,2013-01-15 18:53:00,
2013-01-15 09:03:00,55.0,54.0,-100.00,East,82,0.0,3.0,96,0.00,,,0.00,20.000000,,2013-01-15 19:03:00,
2013-01-15 09:12:00,55.0,54.0,-100.00,East,82,0.0,3.0,96,0.00,,,0.00,20.000000,,2013-01-15 19:12:00,
2013-01-15 09:22:00,56.0,55.0,-100.00,South,173,0.0,5.0,96,0.00,,,0.00,25.000000,,2013-01-15 19:22:00,
2013-01-15 09:43:00,56.0,55.0,-100.00,South,173,0.0,5.0,96,0.00,,,0.00,25.000000,,2013-01-15 19:43:00,
2013-01-15 09:53:00,56.0,55.0,-100.00,South,173,0.0,5.0,96,0.00,,,0.00,25.000000,,2013-01-15 19:53:00,
2013-01-15 10:03:00,56.0,55.0,-100.00,South,173,0.0,5.0,96,0.00,,,0.00,25.000000,,2013-01-15 20:03:00,
2013-01-15 10:12:00,56.0,55.0,-100.00,South,173,0.0,5.0,96,0.00,,,0.00,25.000000,,2013-01-15 20:12:00,
2013-01-15 10:22:00,59.0,56.0,-100.00,WSW,243,1.0,5.0,91,0.00,,,0.00,38.000000,,2013-01-15 20:22:00,
2013-01-15 10:43:00,59.0,56.0,-100.00,WSW,243,1.0,5.0,91,0.00,,,0.00,38.000000,,2013-01-15 20:43:00,
2013-01-15 10:53:00,59.0,56.0,-100.00,WSW,243,1.0,5.0,91,0.00,,,0.00,38.000000,,2013-01-15 20:53:00,
2013-01-15 11:02:00,59.0,56.0,-100.00,WSW,243,1.0,5.0,91,0.00,,,0.00,38.000000,,2013-01-15 21:02:00,
2013-01-15 11:12:00,59.0,56.0,-100.00,WSW,243,1.0,5.0,91,0.00,,,0.00,38.000000,,2013-01-15 21:12:00,
2013-01-15 11:22:00,62.0,57.0,-100.00,WSW,254,1.0,6.0,85,0.00,,,0.00,399.000000,,2013-01-15 21:22:00,
2013-01-15 11:43:00,62.0,57.0,-100.00,WSW,254,1.0,6.0,85,0.00,,,0.00,399.000000,,2013-01-15 21:43:00,
2013-01-15 11:53:00,62.0,57.0,-100.00,WSW,254,1.0,6.0,85,0.00,,,0.00,399.000000,,2013-01-15 21:53:00,
2013-01-15 12:02:00,62.0,57.0,-100.00,WSW,254,1.0,6.0,85,0.00,,,0.00,399.000000,,2013-01-15 22:02:00,
2013-01-15 12:12:00,62.0,57.0,-100.00,WSW,254,1.0,6.0,85,0.00,,,0.00,399.000000,,2013-01-15 22:12:00,
2013-01-15 12:22:00,63.0,57.0,-100.00,West,264,1.0,8.0,82,0.00,,,0.00,382.000000,,2013-01-15 22:22:00,
2013-01-15 12:43:00,63.0,57.0,-100.00,West,264,1.0,8.0,82,0.00,,,0.00,382.000000,,2013-01-15 22:43:00,
2013-01-15 12:53:00,63.0,57.0,-100.00,West,264,1.0,8.0,82,0.00,,,0.00,382.000000,,2013-01-15 22:53:00,
2013-01-15 13:02:00,63.0,57.0,-100.00,West,264,1.0,8.0,82,0.00,,,0.00,382.000000,,2013-01-15 23:02:00,
2013-01-15 13:12:00,63.0,57.0,-100.00,West,264,1.0,8.0,82,0.00,,,0.00,382.000000,,2013-01-15 23:12:00,
2013-01-15 13:22:00,64.0,58.0,-100.00,West,261,2.0,7.0,80,0.00,,,0.00,592.000000,,2013-01-15 23:22:00,
2013-01-15 13:43:00,64.0,58.0,-100.00,West,261,2.0,7.0,80,0.00,,,0.00,592.000000,,2013-01-15 23:43:00,
2013-01-15 13:53:00,64.0,58.0,-100.00,West,261,2.0,7.0,80,0.00,,,0.00,592.000000,,2013-01-15 23:53:00,
2013-01-15 14:02:00,64.0,58.0,-100.00,West,261,2.0,7.0,80,0.00,,,0.00,592.000000,,2013-01-16 00:02:00,
2013-01-15 14:12:00,64.0,58.0,-100.00,West,261,2.0,7.0,80,0.00,,,0.00,592.000000,,2013-01-16 00:12:00,
2013-01-15 14:22:00,65.0,58.0,-100.00,West,262,2.0,6.0,78,0.00,,,0.00,526.000000,,2013-01-16 00:22:00,
2013-01-15 14:43:00,65.0,58.0,-100.00,West,262,2.0,6.0,78,0.00,,,0.00,526.000000,,2013-01-16 00:43:00,
2013-01-15 14:53:00,65.0,58.0,-100.00,West,262,2.0,6.0,78,0.00,,,0.00,526.000000,,2013-01-16 00:53:00,
2013-01-15 15:02:00,65.0,58.0,-100.00,West,262,2.0,6.0,78,0.00,,,0.00,526.000000,,2013-01-16 01:02:00,
2013-01-15 15:12:00,65.0,58.0,-100.00,West,262,2.0,6.0,78,0.00,,,0.00,526.000000,,2013-01-16 01:12:00,
2013-01-15 15:22:00,65.0,60.0,-100.00,West,278,2.0,5.0,83,0.00,,,-99.99,516.000000,,2013-01-16 01:22:00,
2013-01-15 15:43:00,65.0,60.0,-100.00,West,278,2.0,5.0,83,0.00,,,-99.99,516.000000,,2013-01-16 01:43:00,
2013-01-15 15:53:00,65.0,60.0,-100.00,West,278,2.0,5.0,83,0.00,,,-99.99,516.000000,,2013-01-16 01:53:00,
2013-01-15 16:02:00,65.0,60.0,-100.00,West,278,2.0,5.0,83,0.00,,,-99.99,516.000000,,2013-01-16 02:02:00,
2013-01-15 16:12:00,65.0,60.0,-100.00,West,278,2.0,5.0,83,0.00,,,-99.99,516.000000,,2013-01-16 02:12:00,
2013-01-15 16:22:00,64.0,57.0,-100.00,West,267,2.0,7.0,79,0.00,,,0.00,376.000000,,2013-01-16 02:22:00,
2013-01-15 16:43:00,64.0,57.0,-100.00,West,267,2.0,7.0,79,0.00,,,0.00,376.000000,,2013-01-16 02:43:00,
2013-01-15 16:53:00,64.0,57.0,-100.00,West,267,2.0,7.0,79,0.00,,,0.00,376.000000,,2013-01-16 02:53:00,
2013-01-15 17:02:00,64.0,57.0,-100.00,West,267,2.0,7.0,79,0.00,,,0.00,376.000000,,2013-01-16 03:02:00,
2013-01-15 17:11:00,64.0,57.0,-100.00,West,267,2.0,7.0,79,0.00,,,0.00,376.000000,,2013-01-16 03:11:00,
2013-01-15 17:22:00,62.0,58.0,-100.00,WSW,258,2.0,6.0,86,0.00,,,0.00,97.000000,,2013-01-16 03:22:00,
2013-01-15 17:43:00,62.0,58.0,-100.00,WSW,258,2.0,6.0,86,0.00,,,0.00,97.000000,,2013-01-16 03:43:00,
2013-01-15 17:53:00,62.0,58.0,-100.00,WSW,258,2.0,6.0,86,0.00,,,0.00,97.000000,,2013-01-16 03:53:00,
2013-01-15 18:02:00,62.0,58.0,-100.00,WSW,258,2.0,6.0,86,0.00,,,0.00,97.000000,,2013-01-16 04:02:00,
2013-01-15 18:12:00,62.0,58.0,-100.00,WSW,258,2.0,6.0,86,0.00,,,0.00,97.000000,,2013-01-16 04:12:00,
2013-01-15 18:22:00,58.0,55.0,-100.00,SW,218,1.0,6.0,90,0.00,,,0.00,22.000000,,2013-01-16 04:22:00,
2013-01-15 18:42:00,58.0,55.0,-100.00,SW,218,1.0,6.0,90,0.00,,,0.00,22.000000,,2013-01-16 04:42:00,
2013-01-15 18:52:00,58.0,55.0,-100.00,SW,218,1.0,6.0,90,0.00,,,0.00,22.000000,,2013-01-16 04:52:00,
2013-01-15 19:03:00,58.0,55.0,-100.00,SW,218,1.0,6.0,90,0.00,,,0.00,22.000000,,2013-01-16 05:03:00,
2013-01-15 19:12:00,58.0,55.0,-100.00,SW,218,1.0,6.0,90,0.00,,,0.00,22.000000,,2013-01-16 05:12:00,
2013-01-15 19:22:00,56.0,54.0,-100.00,West,281,1.0,3.0,94,0.00,,,0.00,0.000000,,2013-01-16 05:22:00,
2013-01-15 19:42:00,56.0,54.0,-100.00,West,281,1.0,3.0,94,0.00,,,0.00,0.000000,,2013-01-16 05:42:00,
2013-01-15 19:53:00,56.0,54.0,-100.00,West,281,1.0,3.0,94,0.00,,,0.00,0.000000,,2013-01-16 05:53:00,
2013-01-15 20:02:00,56.0,54.0,-100.00,West,281,1.0,3.0,94,0.00,,,0.00,0.000000,,2013-01-16 06:02:00,
2013-01-15 20:11:00,56.0,54.0,-100.00,West,281,1.0,3.0,94,0.00,,,0.00,0.000000,,2013-01-16 06:11:00,
2013-01-15 20:22:00,55.0,54.0,-100.00,WNW,289,0.0,2.0,95,0.00,,,0.00,0.000000,,2013-01-16 06:22:00,
2013-01-15 20:43:00,55.0,54.0,-100.00,WNW,289,0.0,2.0,95,0.00,,,0.00,0.000000,,2013-01-16 06:43:00,
2013-01-15 20:53:00,55.0,54.0,-100.00,WNW,289,0.0,2.0,95,0.00,,,0.00,0.000000,,2013-01-16 06:53:00,
2013-01-15 21:02:00,55.0,54.0,-100.00,WNW,289,0.0,2.0,95,0.00,,,0.00,0.000000,,2013-01-16 07:02:00,
2013-01-15 21:11:00,55.0,54.0,-100.00,WNW,289,0.0,2.0,95,0.00,,,0.00,0.000000,,2013-01-16 07:11:00,
2013-01-15 21:22:00,54.0,53.0,-100.00,SSE,157,0.0,1.0,95,0.00,,,0.00,0.000000,,2013-01-16 07:22:00,
2013-01-15 21:42:00,54.0,53.0,-100.00,SSE,157,0.0,1.0,95,0.00,,,0.00,0.000000,,2013-01-16 07:42:00,
2013-01-15 21:52:00,54.0,53.0,-100.00,SSE,157,0.0,1.0,95,0.00,,,0.00,0.000000,,2013-01-16 07:52:00,
2013-01-15 22:02:00,54.0,53.0,-100.00,SSE,157,0.0,1.0,95,0.00,,,0.00,0.000000,,2013-01-16 08:02:00,
2013-01-15 22:12:00,54.0,53.0,-100.00,SSE,157,0.0,1.0,95,0.00,,,0.00,0.000000,,2013-01-16 08:12:00,
2013-01-15 22:22:00,52.0,51.0,-100.00,SSE,161,0.0,1.0,96,0.00,,,0.00,0.000000,,2013-01-16 08:22:00,
2013-01-15 22:42:00,52.0,51.0,-100.00,SSE,161,0.0,1.0,96,0.00,,,0.00,0.000000,,2013-01-16 08:42:00,
2013-01-15 22:52:00,52.0,51.0,-100.00,SSE,161,0.0,1.0,96,0.00,,,0.00,0.000000,,2013-01-16 08:52:00,
2013-01-15 23:02:00,52.0,51.0,-100.00,SSE,161,0.0,1.0,96,0.00,,,0.00,0.000000,,2013-01-16 09:02:00,
2013-01-15 23:11:00,52.0,51.0,-100.00,SSE,161,0.0,1.0,96,0.00,,,0.00,0.000000,,2013-01-16 09:11:00,
2013-01-15 23:22:00,51.0,50.0,-100.00,SSE,163,0.0,1.0,96,0.00,,,0.00,0.000000,,2013-01-16 09:22:00,
2013-01-15 23:43:00,51.0,50.0,-100.00,SSE,163,0.0,1.0,96,0.00,,,0.00,0.000000,,2013-01-16 09:43:00,
2013-01-15 23:53:00,51.0,50.0,-100.00,SSE,163,0.0,1.0,96,0.00,,,0.00,0.000000,,2013-01-16 09:53:00,